Dobrodošli na spletni strani vremenske postaje Senovo. Vse informacije so informativnega značaja, saj vremenska postaja ni del državne mreže meteoroloških postaj. AKTUALNIH OBVESTIL NI.


Sneg/Led Od: 22-02-2018 00:00 Do: 23-02-2018 23:59 Opozorilo za: Sneg/Led Stopnja: Rumena info button
Veter Od: 22-02-2018 00:00 Do: 23:59 Opozorilo za: Veter Stopnja: Rumena info button

Pogled proti Armezu več informacij Pogled proti Armezu


Lisca več informacij Lisca


Radar strel več informacij blitzortung!


opozorilo za sneg/led več informacij rain snow radar


Obiščite še:

Template documentation
and downloads

And another site



Weather Underground, zgodovina - Tekstovno

Dnevni povzetek za December 22, 2017 Enote:  Angleško    Metrično   Obe
« Predhodni Dan
Naslednji Dan »
Dnevni Tedenski Mesečni Letni Po meri
  Višja: Nižja: Povprečje:
Temperatura: TemperatureC °F -2.6 °F 0.5 °F
Točka rosišča: DewpointC °F -3.9 °F -1.2 °F
Vlažnost: Humidity % 0 % 87 %
Hitrost vetra: WindSpeedKMH mph 0.0 mph 0.6 mph
Sunki vetra: WindSpeedGustKMH mph - -
Veter:- - SSW
Zračni tlak: PressurehPa in 0.0 in -
Padavine: 0.0 in    
Historical Graphs
 
 
Tabelarni podarki za December 22, 2017
Čas Temperatura Točka rosišča Zračni tlak Veter Hitrost vetra Sunki vetra Vlažnost Intenziteta padavin (urna)
TemperatureC °F DewpointC °F PressurehPa in Calm     Humidity % HourlyPrecipMM in
00:03 -0.6 °F -2.2 °F 1029.0 in Calm     89 % 0.0 in
00:05 -0.7 °F -2.3 °F 1029.0 in Calm     89 % 0.0 in
00:07 -0.7 °F -2.3 °F 1029.0 in Calm     89 % 0.0 in
00:12 -0.7 °F -2.3 °F 1029.0 in Calm     89 % 0.0 in
00:17 -0.7 °F -2.3 °F 1029.0 in Calm     89 % 0.0 in
00:18 -0.7 °F -2.3 °F 1029.0 in Calm     89 % 0.0 in
00:23 -0.7 °F -2.3 °F 1029.0 in Calm     89 % 0.0 in
00:27 -0.7 °F -2.3 °F 1029.0 in Calm     89 % 0.0 in
00:32 -0.8 °F -2.4 °F 1029.0 in Calm     89 % 0.0 in
00:37 -0.8 °F -2.4 °F 1029.0 in Calm     89 % 0.0 in
00:42 -0.8 °F -2.4 °F 1029.0 in Calm     89 % 0.0 in
00:45 -0.8 °F -2.4 °F 1029.0 in Calm     89 % 0.0 in
00:50 -0.8 °F -2.4 °F 1029.0 in Calm     89 % 0.0 in
00:51 -0.8 °F -2.4 °F 1029.0 in Calm     89 % 0.0 in
00:57 0.0 °F -2.4 °F 0.0 in Calm     0 % 0.0 in
01:00 -0.8 °F -2.4 °F 1030.0 in Calm     89 % 0.0 in
01:05 -0.9 °F -2.5 °F 1030.0 in Calm     89 % 0.0 in
01:10 -1.0 °F -2.4 °F 1030.0 in Calm     90 % 0.0 in
01:11 -1.0 °F -2.4 °F 1030.0 in Calm     90 % 0.0 in
01:15 -1.0 °F -2.4 °F 1029.0 in Calm     90 % 0.0 in
01:17 -1.0 °F -2.4 °F 1029.0 in Calm     90 % 0.0 in
01:22 -1.1 °F -2.6 °F 1029.0 in Calm     90 % 0.0 in
01:27 -1.2 °F -2.6 °F 1029.0 in Calm     90 % 0.0 in
01:31 -1.3 °F -2.7 °F 1029.0 in Calm     90 % 0.0 in
01:34 -1.4 °F -2.8 °F 1029.0 in Calm     90 % 0.0 in
01:37 -1.4 °F -2.8 °F 1029.0 in Calm     90 % 0.0 in
01:41 -1.5 °F -2.9 °F 1029.0 in Calm     90 % 0.0 in
01:46 -1.6 °F -3.0 °F 1030.0 in Calm     90 % 0.0 in
01:50 -1.7 °F -3.1 °F 1030.0 in Calm     90 % 0.0 in
01:56 -1.8 °F -3.2 °F 1030.0 in Calm     90 % 0.0 in
02:01 -1.7 °F -3.1 °F 1030.0 in Calm     90 % 0.0 in
02:02 -1.7 °F -3.1 °F 1030.0 in Calm     90 % 0.0 in
02:07 -1.7 °F -3.1 °F 1030.0 in Calm     90 % 0.0 in
02:08 -1.7 °F -3.1 °F 1030.0 in Calm     90 % 0.0 in
02:13 -1.7 °F -3.1 °F 1030.0 in Calm     90 % 0.0 in
02:17 -1.7 °F -3.1 °F 1030.0 in Calm   3.5 mph 90 % 0.0 in
02:22 -1.6 °F -3.0 °F 1030.0 in SSE 1.1 mph 4.0 mph 90 % 0.0 in
02:27 -1.6 °F -3.0 °F 1030.0 in SSE 1.0 mph 4.0 mph 90 % 0.0 in
02:29 -1.5 °F -2.9 °F 1029.0 in SSE 0.3 mph 2.1 mph 90 % 0.0 in
02:34 -1.5 °F -2.9 °F 1029.0 in Calm     90 % 0.0 in
02:37 -1.5 °F -2.9 °F 1029.0 in Calm     90 % 0.0 in
02:42 -1.5 °F -2.9 °F 1029.0 in NW 0.3 mph 3.2 mph 90 % 0.0 in
02:43 -1.5 °F -2.9 °F 1029.0 in NW 0.3 mph 3.2 mph 90 % 0.0 in
02:48 -1.5 °F -2.9 °F 1029.0 in NW 0.3 mph 3.2 mph 90 % 0.0 in
02:49 -1.5 °F -2.9 °F 1029.0 in NW 0.3 mph 3.2 mph 90 % 0.0 in
02:54 -1.5 °F -2.9 °F 1029.0 in WSW 0.2 mph 3.2 mph 90 % 0.0 in
02:55 -1.5 °F -2.9 °F 1029.0 in WSW 0.2 mph 3.2 mph 90 % 0.0 in
03:00 -1.5 °F -2.8 °F 1029.0 in SSW 0.2 mph 3.2 mph 91 % 0.0 in
03:05 -1.5 °F -2.8 °F 1029.0 in SW 0.8 mph 4.3 mph 91 % 0.0 in
03:09 -1.7 °F -3.0 °F 1029.0 in WSW 2.1 mph 4.3 mph 91 % 0.0 in
03:14 -1.7 °F -3.1 °F 1028.0 in WSW 0.6 mph 3.5 mph 90 % 0.0 in
03:16 -1.8 °F -3.2 °F 1028.0 in North 0.2 mph   90 % 0.0 in
03:21 -1.9 °F -3.3 °F 1028.0 in Calm     90 % 0.0 in
03:26 -1.9 °F -3.3 °F 1028.0 in West 0.5 mph 4.0 mph 90 % 0.0 in
03:27 -1.9 °F -3.3 °F 1028.0 in WSW 0.5 mph 4.0 mph 90 % 0.0 in
03:29 -1.9 °F -3.3 °F 1029.0 in WSW 0.6 mph 4.0 mph 90 % 0.0 in
03:33 -2.0 °F -3.3 °F 1029.0 in SW 0.6 mph 4.0 mph 91 % 0.0 in
03:38 -2.1 °F -3.4 °F 1029.0 in West 0.2 mph 4.7 mph 91 % 0.0 in
03:39 -2.1 °F -3.4 °F 1029.0 in WNW 0.3 mph 4.7 mph 91 % 0.0 in
03:44 -2.2 °F -3.4 °F 1029.0 in WNW 0.5 mph 4.7 mph 91 % 0.0 in
03:47 -2.3 °F -3.6 °F 1029.0 in WNW 0.5 mph 4.7 mph 91 % 0.0 in
03:52 -2.3 °F -3.6 °F 1029.0 in Calm     91 % 0.0 in
03:56 -2.3 °F -3.6 °F 1029.0 in Calm     91 % 0.0 in
03:58 -2.3 °F -3.6 °F 1029.0 in Calm     91 % 0.0 in
04:04 -2.4 °F -3.7 °F 1028.0 in Calm     91 % 0.0 in
04:09 -2.5 °F -3.8 °F 1028.0 in Calm     91 % 0.0 in
04:10 -2.5 °F -3.8 °F 1028.0 in Calm     91 % 0.0 in
04:15 -2.5 °F -3.8 °F 1028.0 in Calm     91 % 0.0 in
04:16 -2.6 °F -3.9 °F 1028.0 in Calm     91 % 0.0 in
04:21 -2.6 °F -3.9 °F 1028.0 in Calm     91 % 0.0 in
04:22 -2.6 °F -3.9 °F 1028.0 in Calm     91 % 0.0 in
04:27 -2.6 °F -3.9 °F 1028.0 in Calm     91 % 0.0 in
04:29 -2.6 °F -3.9 °F 1028.0 in Calm     91 % 0.0 in
04:34 -2.5 °F -3.8 °F 1028.0 in Calm     91 % 0.0 in
04:35 -2.5 °F -3.8 °F 1028.0 in Calm     91 % 0.0 in
04:40 -2.4 °F -3.7 °F 1028.0 in Calm     91 % 0.0 in
04:42 -2.4 °F -3.7 °F 1028.0 in Calm     91 % 0.0 in
04:43 -2.4 °F -3.7 °F 1029.0 in Calm     91 % 0.0 in
04:47 -2.4 °F -3.7 °F 1029.0 in Calm     91 % 0.0 in
04:52 -2.3 °F -3.6 °F 1029.0 in WNW 0.2 mph 4.0 mph 91 % 0.0 in
04:53 -2.3 °F -3.6 °F 1029.0 in WNW 0.5 mph 4.3 mph 91 % 0.0 in
04:58 -2.3 °F -3.6 °F 1029.0 in WNW 1.4 mph 4.3 mph 91 % 0.0 in
05:00 -2.3 °F -3.6 °F 1028.0 in WNW 1.4 mph 4.3 mph 91 % 0.0 in
05:05 -2.3 °F -3.6 °F 1028.0 in NW 0.6 mph 3.5 mph 91 % 0.0 in
05:10 -2.3 °F -3.4 °F 1028.0 in Calm     92 % 0.0 in
05:15 -2.3 °F -3.4 °F 1029.0 in Calm     92 % 0.0 in
05:16 -2.3 °F -3.4 °F 1029.0 in Calm     92 % 0.0 in
05:21 -2.4 °F -3.5 °F 1029.0 in Calm     92 % 0.0 in
05:23 -2.4 °F -3.5 °F 1029.0 in Calm     92 % 0.0 in
05:27 -2.3 °F -3.4 °F 1029.0 in Calm     92 % 0.0 in
05:28 -2.4 °F -3.5 °F 1029.0 in Calm     92 % 0.0 in
05:33 -2.4 °F -3.5 °F 1028.0 in Calm     92 % 0.0 in
05:34 -2.4 °F -3.5 °F 1028.0 in Calm     92 % 0.0 in
05:39 -2.3 °F -3.4 °F 1028.0 in Calm     92 % 0.0 in
05:40 -2.3 °F -3.4 °F 1028.0 in Calm     92 % 0.0 in
05:43 -2.3 °F -3.4 °F 1028.0 in Calm     92 % 0.0 in
05:48 -2.3 °F -3.4 °F 1028.0 in Calm     92 % 0.0 in
05:52 -2.3 °F -3.4 °F 1028.0 in Calm     92 % 0.0 in
05:57 -2.3 °F -3.4 °F 1028.0 in NW 0.5 mph 3.5 mph 92 % 0.0 in
05:58 -2.2 °F -3.3 °F 1028.0 in NW 0.5 mph 3.5 mph 92 % 0.0 in
06:03 -2.2 °F -3.3 °F 1029.0 in NW 0.5 mph 3.5 mph 92 % 0.0 in
06:04 -2.2 °F -3.3 °F 1029.0 in NW 0.5 mph 3.5 mph 92 % 0.0 in
06:09 -2.0 °F -3.1 °F 1029.0 in Calm     92 % 0.0 in
06:14 -2.0 °F -3.0 °F 1029.0 in Calm     93 % 0.0 in
06:15 -2.0 °F -3.0 °F 1029.0 in Calm     93 % 0.0 in
06:16 -2.0 °F -3.0 °F 1029.0 in Calm     93 % 0.0 in
06:21 -1.9 °F -3.0 °F 1029.0 in Calm     92 % 0.0 in
06:23 -1.9 °F -3.0 °F 1029.0 in Calm   2.6 mph 92 % 0.0 in
06:25 -1.9 °F -3.0 °F 1029.0 in WSW 1.0 mph 5.0 mph 92 % 0.0 in
06:30 -1.6 °F -2.6 °F 1029.0 in SW 2.7 mph 5.0 mph 93 % 0.0 in
06:33 -1.6 °F -2.6 °F 1029.0 in SW 4.3 mph 5.5 mph 93 % 0.0 in
06:38 -1.5 °F -2.5 °F 1029.0 in SW 2.9 mph 5.5 mph 93 % 0.0 in
06:39 -1.5 °F -2.5 °F 1029.0 in SW 2.4 mph 5.5 mph 93 % 0.0 in
06:40 -1.5 °F -2.5 °F 1029.0 in SW 2.1 mph 5.5 mph 93 % 0.0 in
06:45 -1.5 °F -2.5 °F 1029.0 in East 0.5 mph 3.5 mph 93 % 0.0 in
06:46 -1.5 °F -2.5 °F 1029.0 in East 0.5 mph 3.5 mph 93 % 0.0 in
06:51 -1.4 °F -2.4 °F 1029.0 in ENE 0.2 mph 1.8 mph 93 % 0.0 in
06:53 -1.4 °F -2.4 °F 1029.0 in Calm     93 % 0.0 in
06:54 -1.4 °F -2.4 °F 1029.0 in Calm     93 % 0.0 in
06:59 -1.4 °F -2.4 °F 1029.0 in Calm     93 % 0.0 in
07:04 -1.3 °F -2.3 °F 1029.0 in Calm     93 % 0.0 in
07:09 -1.3 °F -2.3 °F 1029.0 in Calm     93 % 0.0 in
07:14 -1.3 °F -2.3 °F 1029.0 in Calm     93 % 0.0 in
07:17 -1.3 °F -2.3 °F 1029.0 in Calm     93 % 0.0 in
07:21 -1.3 °F -2.3 °F 1029.0 in Calm     93 % 0.0 in
07:26 -1.3 °F -2.3 °F 1029.0 in Calm     93 % 0.0 in
07:28 -1.2 °F -2.2 °F 1029.0 in Calm     93 % 0.0 in
07:32 -1.2 °F -2.1 °F 1029.0 in Calm     94 % 0.0 in
07:35 -1.2 °F -2.1 °F 1029.0 in Calm     94 % 0.0 in
07:37 0.0 °F -2.2 °F 0.0 in Calm     0 % 0.0 in
07:42 -1.2 °F -2.1 °F 1029.0 in Calm     94 % 0.0 in
07:43 -1.2 °F -2.1 °F 1029.0 in Calm     94 % 0.0 in
07:48 -1.2 °F -2.1 °F 1030.0 in Calm     94 % 0.0 in
07:49 -1.2 °F -2.1 °F 1030.0 in Calm     94 % 0.0 in
07:55 -1.2 °F -2.1 °F 1030.0 in Calm     94 % 0.0 in
08:00 -1.1 °F -1.9 °F 1030.0 in Calm     94 % 0.0 in
08:04 -1.1 °F -1.9 °F 1030.0 in Calm     94 % 0.0 in
08:09 -1.1 °F -1.9 °F 1030.0 in Calm     94 % 0.0 in
08:17 -1.0 °F -1.8 °F 1030.0 in Calm     94 % 0.0 in
08:19 -1.0 °F -1.8 °F 1030.0 in Calm     94 % 0.0 in
08:24 -1.0 °F -1.8 °F 1030.0 in Calm     94 % 0.0 in
08:26 -1.0 °F -1.8 °F 1030.0 in Calm     94 % 0.0 in
08:36 -0.8 °F -1.7 °F 1030.0 in Calm     94 % 0.0 in
08:39 -0.8 °F -1.7 °F 1030.0 in Calm     94 % 0.0 in
08:44 -0.7 °F -1.6 °F 1031.0 in Calm     94 % 0.0 in
08:45 -0.7 °F -1.6 °F 1031.0 in Calm     94 % 0.0 in
08:48 -0.7 °F -1.6 °F 1031.0 in Calm     94 % 0.0 in
08:51 -0.6 °F -1.4 °F 1031.0 in Calm     94 % 0.0 in
08:54 -0.6 °F -1.4 °F 1031.0 in Calm     94 % 0.0 in
08:56 -0.5 °F -1.3 °F 1031.0 in Calm     94 % 0.0 in
09:01 -0.5 °F -1.3 °F 1031.0 in Calm     94 % 0.0 in
09:08 -0.5 °F -1.3 °F 1031.0 in Calm     94 % 0.0 in
09:09 -0.5 °F -1.3 °F 1031.0 in Calm     94 % 0.0 in
09:14 -0.5 °F -1.3 °F 1031.0 in Calm     94 % 0.0 in
09:19 -0.4 °F -1.2 °F 1031.0 in Calm     94 % 0.0 in
09:20 -0.4 °F -1.2 °F 1031.0 in Calm     94 % 0.0 in
09:21 -0.4 °F -1.2 °F 1031.0 in Calm     94 % 0.0 in
09:22 -0.4 °F -1.2 °F 1031.0 in Calm     94 % 0.0 in
09:26 -0.3 °F -1.2 °F 1031.0 in Calm     94 % 0.0 in
09:29 -0.3 °F -1.2 °F 1032.1 in Calm     94 % 0.0 in
09:34 -0.1 °F -0.9 °F 1032.1 in Calm     94 % 0.0 in
09:36 -0.1 °F -0.8 °F 1032.1 in Calm     95 % 0.0 in
09:41 0.0 °F -0.7 °F 1032.1 in Calm     95 % 0.0 in
09:47 0.1 °F -0.6 °F 1032.1 in Calm     95 % 0.0 in
09:52 0.2 °F -0.5 °F 1032.1 in Calm     95 % 0.0 in
09:54 0.3 °F -0.4 °F 1032.1 in SSW 0.2 mph 2.6 mph 95 % 0.0 in
09:59 0.4 °F -0.3 °F 1031.0 in SW 1.4 mph 4.3 mph 95 % 0.0 in
10:01 0.4 °F -0.3 °F 1031.0 in SW 1.4 mph 4.3 mph 95 % 0.0 in
10:04 0.5 °F -0.2 °F 1031.0 in SW 1.4 mph 4.3 mph 95 % 0.0 in
10:10 0.6 °F -0.1 °F 1031.0 in SW 0.8 mph 4.0 mph 95 % 0.0 in
10:12 0.6 °F -0.1 °F 1031.0 in SW 1.3 mph 4.0 mph 95 % 0.0 in
10:17 0.7 °F 0.0 °F 1030.0 in SW 1.6 mph 4.0 mph 95 % 0.0 in
10:19 0.7 °F 0.0 °F 1030.0 in SW 1.3 mph 4.0 mph 95 % 0.0 in
10:24 0.8 °F 0.1 °F 1030.0 in SW 0.6 mph 4.0 mph 95 % 0.0 in
10:25 0.9 °F 0.2 °F 1030.0 in SW 0.6 mph 4.0 mph 95 % 0.0 in
10:30 1.0 °F 0.3 °F 1032.1 in SW 0.6 mph 4.0 mph 95 % 0.0 in
10:31 1.0 °F 0.3 °F 1032.1 in SW 0.6 mph 4.0 mph 95 % 0.0 in
10:37 1.1 °F 0.4 °F 1032.1 in WSW 0.5 mph 3.5 mph 95 % 0.0 in
10:41 1.3 °F 0.6 °F 1032.1 in SW 0.5 mph 2.1 mph 95 % 0.0 in
10:42 1.3 °F 0.6 °F 1032.1 in SW 0.5 mph 3.5 mph 95 % 0.0 in
10:47 1.4 °F 0.7 °F 1031.0 in SW 1.8 mph 4.7 mph 95 % 0.0 in
10:50 1.5 °F 0.8 °F 1031.0 in SW 2.3 mph 4.7 mph 95 % 0.0 in
10:56 1.6 °F 0.9 °F 1031.0 in SW 1.6 mph 3.2 mph 95 % 0.0 in
10:58 1.7 °F 1.0 °F 1031.0 in SW 1.1 mph 3.2 mph 95 % 0.0 in
11:02 1.8 °F 1.1 °F 1031.0 in SW 0.3 mph 2.6 mph 95 % 0.0 in
11:03 1.8 °F 1.1 °F 1031.0 in SSW 0.5 mph 3.2 mph 95 % 0.0 in
11:08 2.0 °F 1.3 °F 1031.0 in SSE 1.3 mph 4.0 mph 95 % 0.0 in
11:10 2.0 °F 1.3 °F 1031.0 in SSE 1.6 mph 4.0 mph 95 % 0.0 in
11:13 2.1 °F 1.4 °F 1031.0 in SSE 1.9 mph 4.0 mph 95 % 0.0 in
11:18 2.4 °F 1.7 °F 1031.0 in SE 2.3 mph 4.3 mph 95 % 0.0 in
11:21 2.6 °F 1.9 °F 1031.0 in SE 2.4 mph 4.7 mph 95 % 0.0 in
11:24 2.7 °F 2.0 °F 1031.0 in ESE 3.1 mph 5.0 mph 95 % 0.0 in
11:28 2.8 °F 2.1 °F 1031.0 in ESE 2.7 mph 5.0 mph 95 % 0.0 in
11:30 2.9 °F 2.2 °F 1030.0 in ESE 2.6 mph 5.0 mph 95 % 0.0 in
11:35 3.1 °F 2.4 °F 1030.0 in ESE 1.0 mph 3.5 mph 95 % 0.0 in
11:36 3.1 °F 2.4 °F 1030.0 in ESE 0.8 mph 3.5 mph 95 % 0.0 in
11:41 3.3 °F 2.6 °F 1030.0 in Calm     95 % 0.0 in
11:43 3.6 °F 2.9 °F 1030.0 in Calm     95 % 0.0 in
11:45 3.6 °F 2.9 °F 1030.0 in Calm   1.4 mph 95 % 0.0 in
11:50 4.0 °F 3.1 °F 1030.0 in South 0.3 mph 4.0 mph 94 % 0.0 in
11:53 4.2 °F 3.4 °F 1030.0 in South 1.0 mph 4.0 mph 95 % 0.0 in
11:58 4.5 °F 3.8 °F 1030.0 in SSE 1.8 mph 4.0 mph 95 % 0.0 in
12:03 4.8 °F 3.9 °F 1029.0 in SE 2.4 mph 5.0 mph 94 % 0.0 in
12:08 5.0 °F 4.1 °F 1029.0 in East 2.6 mph 5.0 mph 94 % 0.0 in
12:09 5.0 °F 4.1 °F 1029.0 in ESE 2.4 mph 5.0 mph 94 % 0.0 in
12:14 5.2 °F 4.3 °F 1029.0 in ESE 1.8 mph 4.3 mph 94 % 0.0 in
12:15 5.2 °F 4.3 °F 1029.0 in ESE 1.8 mph 4.3 mph 94 % 0.0 in
12:18 5.6 °F 4.7 °F 1029.0 in South 1.1 mph 4.3 mph 94 % 0.0 in
12:21 5.8 °F 4.9 °F 1029.0 in SSW 0.3 mph 2.6 mph 94 % 0.0 in
12:26 6.0 °F 4.9 °F 1029.0 in SSE 0.8 mph 4.3 mph 93 % 0.0 in
12:27 6.1 °F 5.1 °F 1029.0 in SSE 1.1 mph 4.3 mph 93 % 0.0 in
12:32 6.3 °F 5.3 °F 1029.0 in SSE 1.8 mph 4.3 mph 93 % 0.0 in
12:38 6.3 °F 5.1 °F 1029.0 in South 1.4 mph 4.0 mph 92 % 0.0 in
12:39 6.4 °F 5.2 °F 1029.0 in South 1.8 mph 4.0 mph 92 % 0.0 in
12:45 6.5 °F 5.1 °F 1029.0 in South 2.4 mph 4.0 mph 91 % 0.0 in
12:46 6.5 °F 5.1 °F 1029.0 in South 2.4 mph 4.0 mph 91 % 0.0 in
12:51 6.4 °F 4.9 °F 1029.0 in SSE 3.2 mph 5.5 mph 90 % 0.0 in
12:52 6.4 °F 4.9 °F 1029.0 in SSE 3.4 mph 5.5 mph 90 % 0.0 in
12:57 6.3 °F 4.6 °F 1029.0 in SE 4.2 mph 5.5 mph 89 % 0.0 in
13:02 6.1 °F 4.3 °F 1029.0 in SSE 3.5 mph 5.5 mph 88 % 0.0 in
13:04 6.1 °F 4.3 °F 1029.0 in SSE 3.2 mph 5.0 mph 88 % 0.0 in
13:09 6.0 °F 4.0 °F 1029.0 in SW 0.8 mph 2.6 mph 87 % 0.0 in
13:14 6.0 °F 4.0 °F 1029.0 in SSW 1.4 mph 4.3 mph 87 % 0.0 in
13:20 6.0 °F 4.0 °F 1029.0 in SSW 1.9 mph 4.3 mph 87 % 0.0 in
13:22 6.0 °F 3.8 °F 1029.0 in South 1.9 mph 6.1 mph 86 % 0.0 in
13:23 6.0 °F 3.8 °F 1029.0 in South 2.1 mph 6.1 mph 86 % 0.0 in
13:28 6.0 °F 3.8 °F 1029.0 in South 2.7 mph 6.1 mph 86 % 0.0 in
13:29 6.0 °F 3.8 °F 1029.0 in South 2.9 mph 6.1 mph 86 % 0.0 in
13:33 6.0 °F 3.8 °F 1029.0 in South 3.1 mph 4.3 mph 86 % 0.0 in
13:37 6.0 °F 3.7 °F 1029.0 in SSE 2.6 mph 4.3 mph 85 % 0.0 in
13:39 6.0 °F 3.7 °F 1029.0 in South 2.6 mph 4.7 mph 85 % 0.0 in
13:44 5.9 °F 3.6 °F 1028.0 in South 2.4 mph 4.7 mph 85 % 0.0 in
13:47 5.9 °F 3.6 °F 1028.0 in South 2.4 mph 4.7 mph 85 % 0.0 in
13:50 5.9 °F 3.6 °F 1028.0 in South 2.6 mph 6.1 mph 85 % 0.0 in
13:53 5.9 °F 3.4 °F 1028.0 in South 2.6 mph 6.1 mph 84 % 0.0 in
13:58 6.0 °F 3.5 °F 1028.0 in South 4.3 mph 6.9 mph 84 % 0.0 in
14:03 6.0 °F 3.3 °F 1028.0 in South 4.3 mph 6.9 mph 83 % 0.0 in
14:04 6.0 °F 3.3 °F 1028.0 in South 4.3 mph 6.9 mph 83 % 0.0 in
14:09 6.2 °F 3.5 °F 1028.0 in South 3.4 mph 5.0 mph 83 % 0.0 in
14:10 6.2 °F 3.5 °F 1028.0 in South 3.2 mph 5.0 mph 83 % 0.0 in
14:15 0.0 °F 3.5 °F 0.0 in South 2.9 mph 4.0 mph 0 % 0.0 in
14:20 6.3 °F 3.4 °F 1028.0 in SSW 1.9 mph 3.2 mph 82 % 0.0 in
14:21 6.3 °F 3.4 °F 1028.0 in SSW 1.6 mph 3.2 mph 82 % 0.0 in
14:26 6.1 °F 3.1 °F 1028.0 in SSW 1.1 mph 3.2 mph 81 % 0.0 in
14:27 6.1 °F 3.1 °F 1028.0 in SSW 1.1 mph 3.2 mph 81 % 0.0 in
14:32 6.0 °F 3.0 °F 1028.0 in SSW 0.8 mph 3.5 mph 81 % 0.0 in
14:35 5.9 °F 2.9 °F 1028.0 in SW 1.3 mph 4.0 mph 81 % 0.0 in
14:40 5.9 °F 2.7 °F 1028.0 in SW 2.3 mph 4.0 mph 80 % 0.0 in
14:41 5.9 °F 2.7 °F 1028.0 in SW 2.4 mph 4.0 mph 80 % 0.0 in
14:46 6.0 °F 2.8 °F 1028.0 in SW 2.9 mph 4.0 mph 80 % 0.0 in
14:51 6.0 °F 2.6 °F 1028.0 in SW 1.9 mph 4.0 mph 79 % 0.0 in
14:52 6.0 °F 2.6 °F 1028.0 in SW 1.9 mph 3.5 mph 79 % 0.0 in
14:53 6.0 °F 2.6 °F 1028.0 in SW 1.4 mph 4.0 mph 79 % 0.0 in
14:57 5.8 °F 2.4 °F 1028.0 in SW 1.1 mph 4.0 mph 79 % 0.0 in
15:02 0.0 °F 2.4 °F 0.0 in Calm     0 % 0.0 in
15:03 5.6 °F 2.1 °F 0.0 in SW 2.3 mph 3.2 mph 78 % 0.0 in
15:04 5.6 °F 2.1 °F 0.0 in SW 2.3 mph 3.2 mph 78 % 0.0 in
15:09 5.4 °F 1.9 °F 0.0 in SW 0.8 mph 3.2 mph 78 % 0.0 in
15:12 5.4 °F 1.9 °F 0.0 in SW 1.1 mph 4.3 mph 78 % 0.0 in
15:14 5.3 °F 1.8 °F 1027.0 in SW 0.5 mph 4.3 mph 78 % 0.0 in
15:18 5.3 °F 1.8 °F 1027.0 in SW 0.6 mph 4.3 mph 78 % 0.0 in
15:19 5.2 °F 1.7 °F 1027.0 in SW 0.8 mph 4.3 mph 78 % 0.0 in
15:24 5.1 °F 1.4 °F 1027.0 in SW 1.3 mph 4.3 mph 77 % 0.0 in
15:27 5.0 °F 1.3 °F 1027.0 in SW 2.1 mph 4.3 mph 77 % 0.0 in
15:32 5.0 °F 1.3 °F 1028.0 in WSW 2.4 mph 4.3 mph 77 % 0.0 in
15:38 5.0 °F 1.3 °F 1028.0 in WNW 1.8 mph 4.3 mph 77 % 0.0 in
15:43 5.0 °F 1.3 °F 1028.0 in NW 1.8 mph 4.3 mph 77 % 0.0 in
15:45 5.0 °F 1.3 °F 1028.0 in WNW 1.9 mph 4.7 mph 77 % 0.0 in
15:50 5.0 °F 1.3 °F 1028.0 in WNW 2.1 mph 4.7 mph 77 % 0.0 in
15:52 5.0 °F 1.3 °F 1028.0 in West 2.3 mph 4.7 mph 77 % 0.0 in
15:54 4.2 °F 0.5 °F 1028.0 in West 1.4 mph 4.7 mph 77 % 0.0 in
15:57 4.1 °F 0.4 °F 1028.0 in WNW 1.6 mph 4.7 mph 77 % 0.0 in
16:03 4.0 °F 0.3 °F 1028.0 in NW 1.8 mph 4.0 mph 77 % 0.0 in
16:07 3.8 °F 0.3 °F 1028.0 in WNW 0.2 mph 2.6 mph 78 % 0.0 in
16:12 3.7 °F 0.2 °F 1028.0 in Calm     78 % 0.0 in
16:18 0.0 °F 0.1 °F 0.0 in Calm     0 % 0.0 in
16:23 3.5 °F 0.0 °F 1028.0 in North 0.2 mph   78 % 0.0 in
16:28 3.5 °F 0.0 °F 1028.0 in North 0.2 mph   78 % 0.0 in
16:31 3.3 °F -0.2 °F 1028.0 in Calm   3.2 mph 78 % 0.0 in
16:36 3.2 °F -0.3 °F 1028.0 in West 1.1 mph 4.0 mph 78 % 0.0 in
16:41 3.1 °F -0.4 °F 1028.0 in West 1.3 mph 4.0 mph 78 % 0.0 in
16:45 3.0 °F -0.4 °F 1028.0 in NW 0.8 mph 3.5 mph 78 % 0.0 in
16:50 3.0 °F -0.4 °F 1028.0 in NW 0.3 mph 3.5 mph 78 % 0.0 in
16:52 3.0 °F -0.4 °F 1028.0 in NW 0.5 mph 3.5 mph 78 % 0.0 in
16:56 3.0 °F -0.4 °F 1028.0 in North 0.2 mph   78 % 0.0 in
17:01 2.8 °F -0.5 °F 1028.0 in Calm     79 % 0.0 in
17:06 2.7 °F -0.6 °F 1028.0 in Calm     79 % 0.0 in
17:07 2.7 °F -0.6 °F 1028.0 in Calm     79 % 0.0 in
17:12 2.6 °F -0.7 °F 1028.0 in Calm     79 % 0.0 in
17:16 2.5 °F -0.8 °F 1028.0 in Calm   3.5 mph 79 % 0.0 in
17:20 2.4 °F -0.9 °F 1028.0 in SW 0.3 mph 3.5 mph 79 % 0.0 in
17:25 2.2 °F -0.9 °F 1028.0 in SW 0.3 mph 3.5 mph 80 % 0.0 in
17:27 2.2 °F -0.9 °F 1028.0 in SW 0.2 mph 2.1 mph 80 % 0.0 in
17:32 2.0 °F -1.1 °F 1028.0 in Calm     80 % 0.0 in
17:34 2.0 °F -1.1 °F 1028.0 in Calm     80 % 0.0 in
17:39 1.8 °F -1.3 °F 1028.0 in Calm     80 % 0.0 in
17:40 1.8 °F -1.3 °F 1028.0 in Calm     80 % 0.0 in
17:45 1.6 °F -1.5 °F 1028.0 in Calm     80 % 0.0 in
17:50 1.4 °F -1.7 °F 1028.0 in Calm     80 % 0.0 in
17:55 1.2 °F -1.9 °F 1028.0 in Calm     80 % 0.0 in
17:58 1.1 °F -1.9 °F 1028.0 in Calm     80 % 0.0 in
18:00 1.1 °F -1.9 °F 1028.0 in Calm     80 % 0.0 in
18:05 1.0 °F -2.1 °F 1028.0 in Calm     80 % 0.0 in
18:10 1.0 °F -2.1 °F 1028.0 in Calm     80 % 0.0 in
18:11 1.0 °F -2.1 °F 1028.0 in Calm     80 % 0.0 in
18:16 1.0 °F -2.1 °F 1028.0 in Calm     80 % 0.0 in
18:20 1.0 °F -2.1 °F 1028.0 in Calm     80 % 0.0 in
18:22 1.0 °F -2.1 °F 1028.0 in Calm     80 % 0.0 in
18:25 1.0 °F -2.1 °F 1028.0 in Calm     80 % 0.0 in
18:29 1.0 °F -2.1 °F 1028.0 in Calm     80 % 0.0 in
18:34 1.0 °F -2.1 °F 1028.0 in Calm     80 % 0.0 in
18:40 1.0 °F -2.1 °F 1028.0 in Calm     80 % 0.0 in
18:42 1.0 °F -2.1 °F 1028.0 in WSW 0.3 mph 1.8 mph 80 % 0.0 in
18:48 1.0 °F -2.1 °F 1028.0 in West 1.6 mph 2.6 mph 80 % 0.0 in
18:49 1.0 °F -2.1 °F 1028.0 in West 1.6 mph 3.5 mph 80 % 0.0 in
18:50 1.0 °F -2.1 °F 1028.0 in West 1.6 mph 3.5 mph 80 % 0.0 in
18:54 1.0 °F -2.1 °F 1028.0 in West 1.3 mph 3.5 mph 80 % 0.0 in
18:59 -0.2 °F -2.9 °F 1028.0 in Calm     82 % 0.0 in
19:02 -0.4 °F -3.1 °F 1028.0 in Calm     82 % 0.0 in
19:05 -0.4 °F -2.9 °F 1028.0 in Calm     83 % 0.0 in
19:09 -0.4 °F -2.9 °F 1028.0 in Calm     83 % 0.0 in
19:14 -0.4 °F -2.9 °F 1028.0 in Calm     83 % 0.0 in
19:16 -0.5 °F -3.1 °F 1028.0 in Calm     83 % 0.0 in
19:20 -0.6 °F -3.1 °F 1028.0 in Calm     83 % 0.0 in
19:25 -0.6 °F -3.1 °F 1028.0 in Calm     83 % 0.0 in
19:26 -0.7 °F -3.2 °F 1028.0 in Calm     83 % 0.0 in
19:31 -0.7 °F -3.2 °F 1028.0 in Calm     83 % 0.0 in
19:32 -0.7 °F -3.2 °F 1028.0 in Calm     83 % 0.0 in
19:36 -0.7 °F -3.2 °F 1028.0 in Calm     83 % 0.0 in
19:38 -0.8 °F -3.2 °F 1028.0 in Calm     84 % 0.0 in
19:44 -0.9 °F -3.3 °F 1028.0 in Calm     84 % 0.0 in
19:49 -1.0 °F -3.4 °F 1028.0 in Calm     84 % 0.0 in
19:53 -1.0 °F -3.4 °F 1028.0 in Calm     84 % 0.0 in
19:58 -1.0 °F -3.4 °F 1028.0 in Calm     84 % 0.0 in
19:59 -1.0 °F -3.4 °F 1028.0 in Calm     84 % 0.0 in
20:04 -1.1 °F -3.3 °F 1028.0 in Calm     85 % 0.0 in
20:05 -1.1 °F -3.3 °F 1028.0 in Calm     85 % 0.0 in
20:10 -1.1 °F -3.3 °F 1028.0 in Calm     85 % 0.0 in
20:12 -1.1 °F -3.3 °F 1028.0 in Calm     85 % 0.0 in
20:18 -1.2 °F -3.4 °F 1028.0 in Calm     85 % 0.0 in
20:20 -1.2 °F -3.4 °F 1028.0 in Calm     85 % 0.0 in
20:24 -1.2 °F -3.4 °F 1028.0 in Calm   3.5 mph 85 % 0.0 in
20:25 -1.2 °F -3.4 °F 1028.0 in SSW 0.3 mph 3.5 mph 85 % 0.0 in
20:29 -1.2 °F -3.2 °F 1028.0 in SW 0.5 mph 3.5 mph 86 % 0.0 in
20:34 -1.2 °F -3.2 °F 1028.0 in WNW 1.0 mph 3.5 mph 86 % 0.0 in
20:35 -1.2 °F -3.2 °F 1028.0 in WNW 1.0 mph 3.5 mph 86 % 0.0 in
20:37 -1.2 °F -3.2 °F 1028.0 in NW 0.8 mph 3.5 mph 86 % 0.0 in
20:41 -1.3 °F -3.3 °F 1028.0 in NW 0.8 mph 3.5 mph 86 % 0.0 in
20:46 -1.3 °F -3.3 °F 1028.0 in Calm     86 % 0.0 in
20:47 -1.3 °F -3.3 °F 1028.0 in Calm     86 % 0.0 in
20:49 -1.3 °F -3.3 °F 1028.0 in Calm     86 % 0.0 in
20:53 -1.4 °F -3.4 °F 1028.0 in Calm     86 % 0.0 in
20:54 -1.4 °F -3.3 °F 1028.0 in Calm     87 % 0.0 in
20:59 -1.4 °F -3.3 °F 1028.0 in Calm     87 % 0.0 in
21:04 -1.4 °F -3.3 °F 1028.0 in Calm     87 % 0.0 in
21:08 -1.5 °F -3.4 °F 1028.0 in Calm     87 % 0.0 in
21:14 -1.4 °F -3.3 °F 1028.0 in Calm     87 % 0.0 in
21:15 -1.4 °F -3.3 °F 1028.0 in Calm     87 % 0.0 in
21:20 -1.4 °F -3.3 °F 1028.0 in Calm     87 % 0.0 in
21:25 -1.4 °F -3.3 °F 1028.0 in Calm     87 % 0.0 in
21:29 -1.4 °F -3.3 °F 1028.0 in Calm     87 % 0.0 in
21:34 -1.4 °F -3.3 °F 1028.0 in Calm     87 % 0.0 in
21:39 -1.4 °F -3.3 °F 1028.0 in Calm     87 % 0.0 in
21:44 -1.4 °F -3.1 °F 1028.0 in Calm     88 % 0.0 in
21:49 -1.4 °F -3.1 °F 1028.0 in Calm     88 % 0.0 in
21:50 -1.4 °F -3.1 °F 1028.0 in Calm     88 % 0.0 in
21:55 -1.4 °F -3.1 °F 1028.0 in Calm     88 % 0.0 in
21:58 -1.4 °F -3.1 °F 1028.0 in Calm     88 % 0.0 in
22:03 -1.4 °F -3.1 °F 1029.0 in Calm     88 % 0.0 in
22:04 -1.4 °F -3.1 °F 1029.0 in Calm     88 % 0.0 in
22:09 -1.4 °F -3.1 °F 1029.0 in Calm     88 % 0.0 in
22:10 0.0 °F -3.1 °F 0.0 in Calm     0 % 0.0 in
22:15 -1.3 °F -2.9 °F 1029.0 in Calm     89 % 0.0 in
22:18 -1.3 °F -2.9 °F 1029.0 in Calm     89 % 0.0 in
22:23 -1.3 °F -2.9 °F 1029.0 in Calm     89 % 0.0 in
22:28 -1.3 °F -2.9 °F 1029.0 in Calm     89 % 0.0 in
22:32 -1.1 °F -2.7 °F 1029.0 in Calm     89 % 0.0 in
22:37 -1.1 °F -2.7 °F 1029.0 in Calm     89 % 0.0 in
22:39 -1.1 °F -2.7 °F 1029.0 in Calm     89 % 0.0 in
22:44 -1.1 °F -2.7 °F 1029.0 in Calm     89 % 0.0 in
22:45 -1.1 °F -2.7 °F 1029.0 in Calm     89 % 0.0 in
22:50 -1.1 °F -2.7 °F 1029.0 in Calm     89 % 0.0 in
22:51 -1.1 °F -2.7 °F 1029.0 in Calm     89 % 0.0 in
22:53 -1.2 °F -2.8 °F 1029.0 in Calm     89 % 0.0 in
22:58 -1.3 °F -2.9 °F 1029.0 in Calm     89 % 0.0 in
23:03 -1.3 °F -2.7 °F 1029.0 in Calm     90 % 0.0 in
23:08 -1.4 °F -2.8 °F 1029.0 in Calm     90 % 0.0 in
23:09 -1.4 °F -2.8 °F 1029.0 in Calm     90 % 0.0 in
23:19 -1.6 °F -3.0 °F 1029.0 in Calm     90 % 0.0 in
23:24 -1.7 °F -3.1 °F 1029.0 in Calm     90 % 0.0 in
23:25 -1.7 °F -3.1 °F 1029.0 in Calm     90 % 0.0 in
23:27 -1.7 °F -3.1 °F 1029.0 in Calm     90 % 0.0 in
23:32 -1.8 °F -3.2 °F 1029.0 in Calm     90 % 0.0 in
23:34 -1.9 °F -3.3 °F 1029.0 in Calm     90 % 0.0 in
23:39 -1.9 °F -3.3 °F 1029.0 in Calm     90 % 0.0 in
23:44 -1.9 °F -3.3 °F 1029.0 in Calm     90 % 0.0 in
23:47 -2.0 °F -3.4 °F 1029.0 in Calm     90 % 0.0 in
23:52 -2.1 °F -3.5 °F 1029.0 in Calm     90 % 0.0 in
23:53 -2.1 °F -3.5 °F 1029.0 in Calm     90 % 0.0 in
23:55 -2.1 °F -3.5 °F 1029.0 in Calm     90 % 0.0 in
23:59 -2.2 °F -3.6 °F 1029.0 in Calm     90 % 0.0 in
Vremenska postaja Senovo
Podatki zbrani iz Weather Underground - 3.5 mb

Script developed by  Jim McMurry - jmcmurry@mwt.net Adapted for the template by  Wim van der Kuil - Leuven-Template.eu

Vremenski podatki so objavljeni na:

European Weather Network

WeatherCloud

Weather Underground

AWEKAS

HAMweather, WeatherForYou, PWS Weather

MapView

Geostik

Slovenia weather network

Oprema, ki se uporablja:

Vremenski program
Cumulus

Vremenski server
Asus

Cumulus

Asus